www.pogodaiklimat.ru

Погода и климат >> Архив погоды >> Россия >> Магаданская область >> Сеймчан


АРХИВ ПОГОДЫ в Сеймчане

Время (UTC), дата Ветер
(напр.,м/с)
 
Видим.   Явления Облачность Т
(С)
Тd
(С)
f
(%)
Тe
(С)
Тes
(С)
Комфортность P
(гПа)
Po
(гПа)
Тmin
(С)
Tmax
(С)
R
(мм)
R24
(мм)
S
(см)
12 13.09 З 1 50 км 8/0
[Ac trans Ci fib]
+0.9 -1.7 83 -1 -1 1007.8 981.8
15 13.09 С 1 50 км 8/0
[Ac trans Ci fib]
+2.9 -0.5 78 +1 +1 1006.6 980.9
18 13.09 С 1 50 км 9/0
[Ac trans Ci fib]
+4.2 +1.0 80 +3 +3 1005.3 979.8
21 13.09 Ю 3 50 км 10/6 1000 м
[Sc Ac und]
+11.8 +4.7 62 +10 +10 1003.9 979.0 +0.2
00 14.09 Ю 4 50 км 10/4 1000 м
[Sc Ac und]
+13.9 +5.2 56 +13 +13 1003.5 978.8
03 14.09 Ю 5-11
{12}
50 км 10/5 1000 м
[Cb calv As trans]
+15.2 +5.4 52 +14 +15 1002.8 978.3
06 14.09 Ю 3
{11}
50 км 9/4 1000 м
[Cb calv Ac trans Ci fib]
+13.4 +6.7 64 +12 +13 1003.0 978.3
09 14.09 Ю 3
{10}
50 км 9/6 1000 м
[Cb calv Ac trans Ci fib]
+13.1 +6.1 62 +12 +12 1003.2 978.5 +15.6
12 14.09 Ю 2 50 км {ливн. осадки} 9/6 1000 м
[Cb calv Ac trans Ci fib]
+10.5 +6.8 78 +9 +9 1004.4 979.5
15 14.09 Ю 1 50 км 9/4 1000 м
[Cb calv Ac trans Ci fib]
+5.4 +5.3 99 +4 +4 1005.1 979.7
18 14.09 С 1 50 км 9/4 1000 м
[Cb calv Ac trans Ci fib]
+4.1 +4.0 99 +2 +2 1005.2 979.6
21 14.09 штиль 0 50 км 9/1 1000 м
[Sc Ac trans Ci fib]
+5.5 +5.1 97 +4 +5 1005.3 979.9 +2.8 0.5
00 15.09 штиль 0 50 км 10/3 1000 м
[Sc Ac trans Cs]
+12.7 +5.5 62 +12 +14 1004.4 979.6
03 15.09 ЮВ 3 50 км 10/3 1000 м
[Sc Ac trans Cs]
+15.7 +2.0 40 +15 +17 1003.4 978.8
06 15.09 ЮВ 4 50 км 10/3 1000 м
[Sc Ac trans Cs]
+15.4 -3.3 27 +15 +15 1002.8 978.2
09 15.09 ЮВ 4
{10}
50 км 10/8 1000 м
[Cb calv As trans]
+12.5 -6.4 26 +11 +11 1004.0 979.1 +15.8
12 15.09 Ю 1 50 км 10/6 1000 м
[Cb calv As trans]
+8.4 +3.1 69 +8 +8 1007.3 982.1
15 15.09 З 1 50 км 9/4 1000 м
[Sc Ac trans Ci fib]
+4.9 +4.2 95 +3 +3 1008.2 982.6
18 15.09 З 1 50 км 6/3 1000 м
[Sc Ac trans Ci fib]
+4.2 +3.8 97 +3 +3 1009.0 983.3
21 15.09 З 1 50 км 9/5 1000 м
[Sc Ac trans Ci fib]
+3.8 +3.6 99 +2 +2 1010.2 984.5 +2.3
00 16.09 С 1 50 км 9/6 1000 м
[Sc Ac trans]
+10.1 +3.2 62 +10 +11 1010.8 985.6
03 16.09 Ю 2 50 км 8/5 1000 м
[Cu hum Ac trans Ci fib]
+15.0 +1.9 41 +15 +17 1010.1 985.3
06 16.09 Ю 3 50 км 6/5 1000 м
[Cu med, cong Ci fib]
+14.8 +2.9 45 +14 +15 1010.3 985.5
09 16.09 штиль 0 50 км 4/4 1000 м
[Sc diur, vesp]
+5.0 +2.9 86 +4 +4 1012.6 986.9 +17.1
12 16.09 ЮЗ 1 50 км 3/3 1000 м
[Sc]
+0.4 +0.4 100 -2 -2 1014.4 988.2
15 16.09 СЗ 1 50 км 1/1 1000 м
[Sc]
-2.8 -2.8 100 -5 -5 1015.3 988.8
18 16.09 штиль 0 50 км 3/3 1000 м
[Sc]
-4.2 -4.2 100 -5 -5 1015.7 989.0
21 16.09 З 1 50 км местами туман поземный 3/0
[Ac trans Ci fib]
-0.7 -0.7 100 -3 -3 1015.8 989.5 -5.0
00 17.09 штиль 0 50 км 5/0
[Ci fib]
+9.3 +2.2 61 +9 +13 1014.0 988.6
03 17.09 ЮЗ 1 50 км 8/4 1000 м
[Cu hum Ci fib]
+14.3 +1.4 41 +15 +18 1011.7 986.8
06 17.09 В 2 50 км 8/4 1000 м
[Cu hum Ci fib]
+14.8 +0.1 37 +15 +15 1010.4 985.6
09 17.09 С 2 50 км 4/1 1000 м
[Sc diur, vesp Ac trans]
+5.8 +0.3 68 +4 +4 1011.5 985.9 +15.4
12 17.09 З 1 50 км 9/3 1000 м
[Sc Ac trans Ci fib]
+2.2 -0.3 84 +1 +1 1012.0 986.1
15 17.09 ЮЗ 1 50 км 9/3 1000 м
[Sc Ac trans Ci fib]
+3.5 +1.1 84 +2 +2 1011.7 985.9
18 17.09 штиль 0 50 км 8/3 1000 м
[Sc Ac trans Ci fib]
+1.5 +1.0 96 0 0 1012.0 986.0
21 17.09 Ю 1 50 км 4/3 1000 м
[Cu Sc Ac trans]
+3.8 +1.1 83 +2 +3 1012.4 986.6 +1.0
00 18.09 штиль 0 50 км 6/6 1000 м
[Cu Sc]
+11.0 +3.6 60 +11 +13 1011.5 986.4
03 18.09 В 3 50 км 8/8 1000 м
[Cu med, cong]
+13.1 +1.7 46 +12 +13 1010.7 985.8
06 18.09 С 2 50 км 9/9 1000 м
[Cu Sc]
+12.3 +3.2 54 +12 +12 1010.8 985.8
09 18.09 С 1 4000 м мгла 9/6 1000 м
[Sc Ci fib]
+8.4 +3.1 69 +8 +8 1012.3 987.0 +15.0
12 18.09 С 2 4000 м мгла 9/6 1000 м
[Sc Ci fib]
+6.7 +3.0 77 +5 +5 1013.8 988.2
15 18.09 С 1 4000 м мгла 9/3 1000 м
[Sc Ci fib]
+3.2 +2.2 93 +2 +2 1014.6 988.7
18 18.09 СЗ 1 50 км 9/3 1000 м
[Sc Ci fib]
+4.1 +3.6 97 +2 +2 1014.8 989.0
21 18.09 СЗ 1 20 км 10/8 600 м
[Cb calv Ac und]
+5.3 +4.4 94 +4 +4 1015.3 989.6 +2.0
00 19.09 Ю 1 20 км 10/10 660 м
[Cb cap]
+7.1 +4.1 81 +6 +6 1015.6 990.0
03 19.09 штиль 0 20 км 10/10 1020 м
[Cb calv]
+9.9 +4.4 69 +9 +9 1014.8 989.5
06 19.09 СВ 3 20 км {ливн. осадки} 10/10 1000 м
[Cb calv]
+10.0 +4.1 67 +8 +8 1014.9 989.6
09 19.09 С 2 50 км в посл. час ливневой дождь 10/10 1110 м
[Cb calv]
+7.6 +3.8 77 +6 +6 1015.9 990.3 +10.8
12 19.09 С 2 50 км в посл. час ливневой дождь 10/10 900 м
[Cb calv]
+6.7 +3.7 81 +5 +5 1016.5 990.9
15 19.09 С 2 50 км 10/10 840 м
[Cb calv]
+5.2 +2.3 82 +3 +3 1017.3 991.5
18 19.09 С 3 50 км 9/6 600 м
[Sc Ac trans]
+4.6 +1.3 79 +1 +1 1017.9 992.0
21 19.09 С 2 50 км {ливн. осадки} 9/8 600 м
[Cb calv Ac trans]
+4.3 +1.2 80 +2 +2 1018.6 992.7 +3.6 0.4
00 20.09 С 3 20 км слаб. ливневой дождь 10/10 300 м
[Cb cap]
+4.8 +0.4 73 +2 +2 1018.9 993.1
03 20.09 СВ 3 20 км в посл. час ливневой дождь 9/9 300 м
[Cb calv]
+5.3 +0.5 71 +2 +2 1018.7 992.8
06 20.09 С 2 20 км {ливн. осадки} 8/8 600 м
[Cb calv]
+6.2 -0.8 61 +4 +4 1018.0 992.3
09 20.09 С 2 50 км 9/9 1000 м
[Cb calv]
+3.9 -0.7 72 +1 +1 1018.5 992.5 +6.3 0.2

 

Местоположение метеостанции Сеймчан (Магаданская область, Россия): широта 62.91 долгота 152.40 высота над уровнем моря 210 м.

В архиве по умолчанию представлена погода в Сеймчане за последнюю неделю. Архивные данные за месяц целиком и за предыдущие месяцы, начиная с января 2011 года, Вы можете получить, выбрав интересующий диапазон дат из раскрывающегося списка и нажав кнопку "Ввод!".


*Определитесь, кто Вы:
робот инопланетянин человек

Внимание! Время в таблицах - всемирное. Для получения местного времени необходимо прибавить поправку, которая равна 11 ч.

Смотрите также архив погоды в соседних городах и на ближайших метеорологических станциях:

Погода в Среднекане (Магаданская область, Россия) (51 км)
Погода в Совхозе Эльген (Магаданская область, Россия) (92 км)
Погода в Усть-Бохапче (Магаданская область, Россия) (129 км)
Погода в Балыгычане (Магаданская область, Россия) (140 км)
Погода в Ягодной (Магаданская область, Россия) (150 км)
Погода на Озере Джека Лондона (Магаданская область, Россия) (175 км)
Погода в Омсукчане (Магаданская область, Россия) (179 км)
Погода в Талой (Магаданская область, Россия) (198 км)
Погода в Коркодоне (Магаданская область, Россия) (217 км)
Погода в Сусумане (Магаданская область, Россия) (219 км)

Пояснения к столбцам:

Ветер - указаны скорость ветра в м/с - средняя за 10 мин, порывы в срок и между сроками (в фигурных скобках) и направление, откуда дует ветер: С - северный, СВ - северо-восточный, В - восточный, ЮВ - юго-восточный, Ю - южный, ЮЗ - юго-западный, З - западный, СЗ - северо-западный.
Видимость - горизонтальная дальность видимости в метрах или километрах. При видимости от 1 до 10 км при отсутствии осадков обычно наблюдается дымка, при ухудшении видимости до 1 км и менее - туман. В сухую погоду видимость может ухудшаться дымом, пылью или мглою.
Явления - указаны атмосферные явления, наблюдавшиеся в срок или в последний час перед сроком; фигурными скобками обозначены явления, наблюдавшиеся между сроками (за 1-3 часа до срока); квадратными скобками обозначены град или гололедные отложения с указанием их диаметра в мм.
Облачность - указаны через наклонную черту общая и нижняя облачность в баллах и высота нижней границы облаков в метрах; квадратными скобками обозначены формы облаков: Ci - перистые, Cs - перисто-слоистые, Cc - перисто-кучевые, Ac - высококучевые, As - высокослоистые, Sc - слоисто-кучевые, Ns - слоисто-дождевые, Cu - кучевые, Cb - кучево-дождевые. Подробнее классификацию облаков см. в Атласе облаков (PDF).
T - Температура воздуха - температура, измеренная на высоте 2 м над землей.
Td - Температура точки росы - температура, при понижении до которой содержащийся в воздухе водяной пар достигнет насыщения.
f - Относительная влажность воздуха - влажноcть воздуха, измеренная на высоте 2 м над землей.
Te - Эффективная температура - температура, которую ощущает одетый по сезону человек в тени. Характеристика душности погоды. При расчете учитывается влияние влажности воздуха и скорости ветра на теплоощущения человека.
Tes - Эффективная температура на солнце - температура, которую ощущает человек, с поправкой на солнечный нагрев. Характеристика знойности погоды. Зависит от высоты солнца над горизонтом, облачности и скорости ветра. Ночью, в пасмурную погоду, а также при ветре 12 м/с и более поправка равна нулю.
P - Атмосферное давление - приведенное к уровню моря атмосферное давление.
Po - Атмосферное давление - измеренное на уровне метеостанции атмосферное давление.
Tmin - Минимальная температура - минимум температуры воздуха на высоте 2 м над землей.
Tmax - Максимальная температура - максимум температуры воздуха на высоте 2 м над землей.
R - Количество осадков - Количество выпавших осадков за период времени, мм. При наведении курсора мыши на число - период времени, за который выпало указанное количество осадков.
R24 - Количество осадков - Количество выпавших осадков за 24 часа, мм.
S - Снежный покров - Высота снежного покрова, см. При наведении курсора мыши на число - состояние снежного покрова и степень покрытия местности в баллах.